| time (UTC) | temp C | wind direction | speed KPH | gust KPH | rain 1hr cm | rain 24hr cm | rain mn cm | humidity % | barometer mb |
| 20260505235504 | 11 | 24 | 3.2 | 8.0 | 0.00 | 0.41 | 0.00 | 93 | 1007.7 |
| 20260505234504 | 11 | 27 | 4.8 | 6.4 | 0.00 | 0.41 | 0.00 | 93 | 1007.9 |
| 20260505233004 | 11 | 49 | 3.2 | 8.0 | 0.00 | 0.41 | 0.00 | 93 | 1007.9 |
| 20260505232504 | 11 | 42 | 3.2 | 6.4 | 0.00 | 0.41 | 0.00 | 94 | 1008.1 |
| 20260505232007 | 11 | 22 | 1.6 | 6.4 | 0.00 | 0.41 | 0.00 | 94 | 1007.9 |
| 20260505231504 | 11 | 16 | 1.6 | 3.2 | 0.00 | 0.41 | 0.00 | 94 | 1008.0 |
| 20260505231004 | 11 | 11 | 1.6 | 4.8 | 0.00 | 0.41 | 0.00 | 94 | 1008.2 |
| 20260505230504 | 11 | 11 | 1.6 | 4.8 | 0.00 | 0.41 | 0.00 | 94 | 1008.1 |
| 20260505225504 | 11 | 10 | 4.8 | 9.7 | 0.00 | 0.41 | 0.00 | 94 | 1008.3 |
| 20260505225004 | 11 | 11 | 4.8 | 9.7 | 0.00 | 0.41 | 0.00 | 94 | 1008.1 |
| 20260505224004 | 11 | 17 | 4.8 | 8.0 | 0.00 | 0.41 | 0.00 | 95 | 1008.3 |
| 20260505223503 | 11 | 19 | 4.8 | 11.3 | 0.00 | 0.41 | 0.00 | 95 | 1008.2 |
| 20260505223004 | 11 | 20 | 6.4 | 11.3 | 0.00 | 0.41 | 0.00 | 95 | 1008.2 |
| 20260505222004 | 11 | 29 | 4.8 | 9.7 | 0.00 | 0.41 | 0.00 | 96 | 1008.2 |
| 20260505221004 | 11 | 35 | 3.2 | 8.0 | 0.00 | 0.41 | 0.00 | 96 | 1008.3 |
| 20260505215504 | 10 | 59 | 1.6 | 4.8 | 0.00 | 0.41 | 0.41 | 96 | 1008.5 |
| 20260505215004 | 11 | 53 | 1.6 | 3.2 | 0.00 | 0.41 | 0.41 | 96 | 1008.5 |
| 20260505214504 | 11 | 41 | 1.6 | 3.2 | 0.00 | 0.41 | 0.41 | 96 | 1008.5 |
| 20260505213505 | 11 | 27 | 1.6 | 3.2 | 0.00 | 0.41 | 0.41 | 96 | 1008.5 |
| 20260505213004 | 11 | 26 | 3.2 | 6.4 | 0.00 | 0.41 | 0.41 | 96 | 1008.4 |
| 20260505212504 | 11 | 20 | 3.2 | 6.4 | 0.00 | 0.41 | 0.41 | 96 | 1008.5 |
| 20260505212004 | 11 | 25 | 3.2 | 8.0 | 0.00 | 0.41 | 0.41 | 96 | 1008.6 |
| 20260505211504 | 11 | 27 | 3.2 | 8.0 | 0.00 | 0.41 | 0.41 | 96 | 1008.7 |
| 20260505211003 | 11 | 35 | 3.2 | 8.0 | 0.00 | 0.41 | 0.41 | 96 | 1008.7 |
| 20260505210504 | 11 | 35 | 3.2 | 8.0 | 0.00 | 0.41 | 0.41 | 96 | 1008.5 |
| 20260505210004 | 11 | 36 | 3.2 | 6.4 | 0.00 | 0.41 | 0.41 | 96 | 1008.6 |
| 20260505205504 | 11 | 45 | 4.8 | 6.4 | 0.00 | 0.41 | 0.41 | 96 | 1008.5 |
| 20260505205004 | 11 | 40 | 3.2 | 6.4 | 0.00 | 0.41 | 0.41 | 96 | 1008.7 |
| 20260505204503 | 11 | 39 | 1.6 | 4.8 | 0.00 | 0.41 | 0.41 | 96 | 1008.9 |
| 20260505204004 | 11 | 39 | 1.6 | 3.2 | 0.00 | 0.41 | 0.41 | 96 | 1008.6 |
| 20260505203004 | 11 | 29 | 1.6 | 3.2 | 0.00 | 0.41 | 0.41 | 96 | 1008.5 |
| 20260505201504 | 12 | 36 | 0.0 | 3.2 | 0.00 | 0.41 | 0.41 | 97 | 1008.5 |
| 20260505200504 | 12 | 42 | 0.0 | 3.2 | 0.00 | 0.41 | 0.41 | 97 | 1008.1 |
| 20260505200005 | 12 | 34 | 1.6 | 4.8 | 0.00 | 0.41 | 0.41 | 97 | 1008.2 |
| 20260505195004 | 12 | 38 | 0.0 | 3.2 | 0.00 | 0.41 | 0.41 | 97 | 1007.9 |
| 20260505194005 | 12 | 40 | 1.6 | 3.2 | 0.00 | 0.41 | 0.41 | 96 | 1007.9 |
| 20260505193503 | 12 | 36 | 1.6 | 3.2 | 0.00 | 0.41 | 0.41 | 96 | 1008.0 |
| 20260505193009 | 12 | 36 | 1.6 | 4.8 | 0.00 | 0.41 | 0.41 | 96 | 1007.9 |
| 20260505192504 | 12 | 29 | 1.6 | 4.8 | 0.00 | 0.41 | 0.41 | 96 | 1008.0 |
| 20260505192004 | 12 | 38 | 1.6 | 3.2 | 0.00 | 0.41 | 0.41 | 96 | 1008.0 |
| 20260505191003 | 12 | 31 | 1.6 | 4.8 | 0.00 | 0.41 | 0.41 | 91 | 1007.8 |
| 20260505190504 | 12 | 31 | 3.2 | 4.8 | 0.00 | 0.41 | 0.41 | 91 | 1007.6 |
| 20260505190004 | 12 | 26 | 1.6 | 4.8 | 0.00 | 0.41 | 0.41 | 91 | 1007.8 |
| 20260505185504 | 12 | 23 | 1.6 | 3.2 | 0.00 | 0.41 | 0.41 | 90 | 1007.8 |
| 20260505185005 | 12 | 14 | 3.2 | 6.4 | 0.00 | 0.41 | 0.41 | 89 | 1007.7 |
| 20260505184505 | 12 | 16 | 3.2 | 6.4 | 0.03 | 0.41 | 0.41 | 88 | 1007.7 |
| 20260505183505 | 13 | 355 | 3.2 | 8.0 | 0.18 | 0.41 | 0.41 | 86 | 1007.4 |
| 20260505183006 | 13 | 342 | 3.2 | 8.0 | 0.18 | 0.41 | 0.41 | 86 | 1007.3 |
| 20260505182505 | 13 | 313 | 1.6 | 4.8 | 0.18 | 0.41 | 0.41 | 86 | 1007.5 |
| 20260505182005 | 13 | 287 | 3.2 | 8.0 | 0.18 | 0.41 | 0.41 | 86 | 1007.4 |
| 20260505181505 | 13 | 273 | 4.8 | 8.0 | 0.18 | 0.41 | 0.41 | 85 | 1007.3 |
| 20260505181006 | 14 | 272 | 4.8 | 12.9 | 0.18 | 0.41 | 0.41 | 84 | 1007.3 |
| 20260505180505 | 14 | 257 | 4.8 | 12.9 | 0.18 | 0.41 | 0.41 | 83 | 1007.5 |
| 20260505180005 | 14 | 251 | 4.8 | 12.9 | 0.18 | 0.38 | 0.38 | 84 | 1007.5 |
| 20260505175005 | 15 | 244 | 4.8 | 16.1 | 0.18 | 0.38 | 0.38 | 83 | 1007.6 |
| 20260505174508 | 15 | 243 | 6.4 | 16.1 | 0.15 | 0.38 | 0.38 | 81 | 1007.6 |
| 20260505173506 | 16 | 227 | 4.8 | 12.9 | 0.00 | 0.23 | 0.23 | 77 | 1007.5 |
| 20260505173005 | 16 | 227 | 4.8 | 11.3 | 0.00 | 0.23 | 0.23 | 76 | 1007.4 |
| 20260505172005 | 16 | 240 | 4.8 | 9.7 | 0.00 | 0.23 | 0.23 | 74 | 1007.1 |
| 20260505171506 | 17 | 243 | 3.2 | 9.7 | 0.00 | 0.23 | 0.23 | 73 | 1007.1 |
| 20260505170005 | 17 | 268 | 6.4 | 12.9 | 0.00 | 0.23 | 0.23 | 70 | 1006.9 |
| 20260505165506 | 17 | 268 | 4.8 | 12.9 | 0.00 | 0.23 | 0.23 | 70 | 1007.1 |
| 20260505165005 | 17 | 267 | 1.6 | 11.3 | 0.00 | 0.23 | 0.23 | 71 | 1007.0 |
| 20260505164505 | 17 | 275 | 1.6 | 11.3 | 0.00 | 0.25 | 0.23 | 72 | 1007.1 |
| 20260505164008 | 17 | 269 | 3.2 | 11.3 | 0.00 | 0.25 | 0.23 | 72 | 1007.0 |
| 20260505163506 | 16 | 268 | 4.8 | 11.3 | 0.00 | 0.25 | 0.23 | 72 | 1006.9 |
| 20260505163006 | 16 | 268 | 4.8 | 11.3 | 0.00 | 0.28 | 0.23 | 72 | 1007.1 |
| 20260505162505 | 16 | 272 | 4.8 | 11.3 | 0.00 | 0.28 | 0.23 | 73 | 1007.0 |
| 20260505162005 | 16 | 271 | 3.2 | 6.4 | 0.00 | 0.28 | 0.23 | 75 | 1007.1 |
| 20260505161505 | 16 | 261 | 1.6 | 4.8 | 0.00 | 0.28 | 0.23 | 76 | 1007.1 |
| 20260505161005 | 16 | 238 | 1.6 | 4.8 | 0.00 | 0.28 | 0.23 | 76 | 1007.1 |
| 20260505160505 | 16 | 233 | 3.2 | 11.3 | 0.00 | 0.28 | 0.23 | 75 | 1007.2 |
| 20260505153006 | 16 | 265 | 6.4 | 11.3 | 0.00 | 0.30 | 0.23 | 76 | 1007.3 |
| 20260505152505 | 16 | 256 | 6.4 | 11.3 | 0.00 | 0.30 | 0.23 | 76 | 1007.4 |
| 20260505152005 | 16 | 260 | 6.4 | 12.9 | 0.05 | 0.30 | 0.23 | 78 | 1007.2 |
| 20260505151506 | 16 | 259 | 4.8 | 12.9 | 0.10 | 0.30 | 0.23 | 79 | 1007.1 |
| 20260505151005 | 16 | 277 | 4.8 | 11.3 | 0.15 | 0.30 | 0.23 | 83 | 1007.3 |
| 20260505150509 | 15 | 289 | 4.8 | 11.3 | 0.15 | 0.30 | 0.23 | 84 | 1007.3 |
| 20260505140505 | 16 | 233 | 4.8 | 9.7 | 0.05 | 0.15 | 0.08 | 78 | 1007.3 |
| 20260505125006 | 17 | 297 | 4.8 | 9.7 | 0.00 | 0.13 | 0.03 | 67 | 1007.3 |
| 20260505124505 | 17 | 273 | 4.8 | 9.7 | 0.00 | 0.13 | 0.03 | 69 | 1007.2 |
| 20260505124005 | 17 | 301 | 4.8 | 9.7 | 0.00 | 0.13 | 0.03 | 75 | 1007.3 |
| 20260505123506 | 17 | 330 | 3.2 | 6.4 | 0.00 | 0.13 | 0.03 | 73 | 1007.4 |
| 20260505123005 | 17 | 283 | 3.2 | 6.4 | 0.00 | 0.13 | 0.03 | 75 | 1007.4 |
| 20260505122508 | 16 | 244 | 3.2 | 6.4 | 0.00 | 0.13 | 0.03 | 76 | 1007.5 |
| 20260505122004 | 16 | 295 | 3.2 | 6.4 | 0.00 | 0.13 | 0.03 | 77 | 1007.6 |
| 20260505121506 | 16 | 280 | 1.6 | 6.4 | 0.00 | 0.13 | 0.03 | 78 | 1007.6 |
| 20260505121006 | 16 | 309 | 3.2 | 6.4 | 0.00 | 0.13 | 0.03 | 77 | 1007.6 |
| 20260505120505 | 16 | 307 | 3.2 | 6.4 | 0.03 | 0.13 | 0.03 | 79 | 1007.7 |
| 20260505120005 | 16 | 298 | 3.2 | 8.0 | 0.03 | 0.13 | 0.03 | 80 | 1007.8 |
| 20260505115506 | 15 | 285 | 4.8 | 8.0 | 0.03 | 0.13 | 0.03 | 81 | 1007.7 |
| 20260505115005 | 15 | 273 | 3.2 | 6.4 | 0.03 | 0.13 | 0.03 | 82 | 1007.9 |
| 20260505114505 | 15 | 273 | 3.2 | 8.0 | 0.03 | 0.13 | 0.03 | 84 | 1007.9 |
| 20260505114005 | 15 | 264 | 3.2 | 8.0 | 0.03 | 0.13 | 0.03 | 84 | 1007.9 |
| 20260505113505 | 15 | 257 | 4.8 | 8.0 | 0.03 | 0.13 | 0.03 | 85 | 1008.2 |
| 20260505113005 | 14 | 260 | 4.8 | 8.0 | 0.03 | 0.13 | 0.03 | 84 | 1008.1 |
| 20260505112505 | 14 | 266 | 4.8 | 8.0 | 0.03 | 0.13 | 0.03 | 84 | 1008.3 |
| 20260505112005 | 14 | 268 | 4.8 | 8.0 | 0.03 | 0.13 | 0.03 | 85 | 1008.3 |
| 20260505111505 | 14 | 261 | 4.8 | 9.7 | 0.00 | 0.10 | 0.03 | 85 | 1008.3 |
| 20260505111005 | 14 | 257 | 4.8 | 9.7 | 0.00 | 0.10 | 0.03 | 85 | 1008.3 |
| 20260505110505 | 14 | 256 | 4.8 | 9.7 | 0.00 | 0.10 | 0.00 | 85 | 1008.5 |
| 20260505102005 | 15 | 232 | 4.8 | 8.0 | 0.00 | 0.10 | 0.00 | 82 | 1008.5 |
| 20260505101505 | 15 | 238 | 4.8 | 8.0 | 0.00 | 0.10 | 0.00 | 82 | 1008.4 |
| 20260505100508 | 15 | 232 | 3.2 | 8.0 | 0.00 | 0.10 | 0.00 | 82 | 1008.3 |
| 20260505100005 | 15 | 240 | 3.2 | 6.4 | 0.00 | 0.10 | 0.00 | 82 | 1008.3 |
| 20260505095506 | 15 | 240 | 3.2 | 8.0 | 0.00 | 0.10 | 0.00 | 84 | 1008.4 |
| 20260505095005 | 14 | 238 | 6.4 | 11.3 | 0.00 | 0.10 | 0.00 | 84 | 1008.4 |
| 20260505094504 | 14 | 234 | 6.4 | 11.3 | 0.00 | 0.10 | 0.00 | 84 | 1008.2 |
| 20260505094005 | 14 | 237 | 6.4 | 11.3 | 0.00 | 0.10 | 0.00 | 84 | 1008.3 |
| 20260505093505 | 14 | 269 | 6.4 | 11.3 | 0.00 | 0.10 | 0.00 | 84 | 1008.1 |
| 20260505093005 | 15 | 11 | 3.2 | 11.3 | 0.00 | 0.10 | 0.00 | 85 | 1008.2 |
| 20260505092505 | 15 | 42 | 1.6 | 4.8 | 0.00 | 0.10 | 0.00 | 85 | 1008.2 |
| 20260505092005 | 15 | 37 | 3.2 | 6.4 | 0.00 | 0.10 | 0.00 | 85 | 1008.1 |
| 20260505090505 | 15 | 306 | 1.6 | 6.4 | 0.00 | 0.10 | 0.00 | 85 | 1008.0 |
| 20260505090005 | 15 | 306 | 1.6 | 3.2 | 0.00 | 0.10 | 0.00 | 85 | 1008.2 |
| 20260505085505 | 14 | 311 | 1.6 | 3.2 | 0.00 | 0.10 | 0.00 | 84 | 1008.1 |
| 20260505084505 | 14 | 308 | 3.2 | 6.4 | 0.00 | 0.10 | 0.00 | 85 | 1008.2 |
| 20260505084005 | 14 | 304 | 3.2 | 6.4 | 0.00 | 0.10 | 0.00 | 84 | 1008.2 |
| 20260505083505 | 14 | 325 | 1.6 | 6.4 | 0.00 | 0.10 | 0.00 | 83 | 1008.2 |
| 20260505083005 | 14 | 324 | 3.2 | 8.0 | 0.00 | 0.10 | 0.00 | 83 | 1008.1 |
| 20260505082504 | 14 | 334 | 3.2 | 8.0 | 0.00 | 0.10 | 0.00 | 82 | 1008.2 |
| 20260505082005 | 14 | 347 | 3.2 | 6.4 | 0.00 | 0.10 | 0.00 | 81 | 1008.3 |
| 20260505081505 | 14 | 317 | 1.6 | 6.4 | 0.00 | 0.10 | 0.00 | 82 | 1008.3 |
| 20260505081005 | 14 | 270 | 1.6 | 6.4 | 0.00 | 0.10 | 0.00 | 82 | 1008.3 |
| 20260505080505 | 14 | 243 | 1.6 | 3.2 | 0.00 | 0.10 | 0.00 | 82 | 1008.3 |
| 20260505080005 | 14 | 242 | 1.6 | 6.4 | 0.00 | 0.10 | 0.00 | 82 | 1008.5 |
| 20260505075505 | 14 | 243 | 3.2 | 6.4 | 0.00 | 0.10 | 0.00 | 83 | 1008.4 |
| 20260505075005 | 14 | 242 | 3.2 | 6.4 | 0.00 | 0.10 | 0.00 | 84 | 1008.4 |
| 20260505074506 | 14 | 242 | 4.8 | 6.4 | 0.00 | 0.10 | 0.00 | 84 | 1008.4 |
| 20260505074005 | 14 | 249 | 4.8 | 6.4 | 0.00 | 0.10 | 0.00 | 85 | 1008.5 |
| 20260505073504 | 14 | 252 | 3.2 | 6.4 | 0.00 | 0.10 | 0.00 | 85 | 1008.5 |
| 20260505073005 | 14 | 253 | 3.2 | 6.4 | 0.00 | 0.10 | 0.00 | 86 | 1008.4 |
| 20260505072005 | 13 | 252 | 3.2 | 6.4 | 0.00 | 0.10 | 0.00 | 87 | 1008.4 |
| 20260505071505 | 13 | 261 | 3.2 | 4.8 | 0.00 | 0.10 | 0.00 | 87 | 1008.6 |
| 20260505070505 | 13 | 313 | 3.2 | 6.4 | 0.00 | 0.10 | 0.00 | 86 | 1008.6 |
| 20260505070005 | 13 | 1 | 1.6 | 6.4 | 0.00 | 0.10 | 0.00 | 85 | 1008.7 |
| 20260505065505 | 13 | 17 | 1.6 | 3.2 | 0.00 | 0.10 | 0.00 | 85 | 1008.7 |
| 20260505065005 | 13 | 19 | 1.6 | 3.2 | 0.00 | 0.10 | 0.00 | 86 | 1008.8 |
| 20260505064505 | 13 | 24 | 1.6 | 3.2 | 0.00 | 0.10 | 0.00 | 87 | 1008.8 |
| 20260505063505 | 13 | 41 | 1.6 | 4.8 | 0.00 | 0.10 | 0.00 | 88 | 1009.0 |
| 20260505063005 | 13 | 48 | 1.6 | 3.2 | 0.00 | 0.10 | 0.00 | 88 | 1009.0 |
| 20260505062505 | 13 | 55 | 1.6 | 3.2 | 0.00 | 0.10 | 0.00 | 88 | 1009.0 |
| 20260505062005 | 12 | 64 | 1.6 | 3.2 | 0.00 | 0.10 | 0.00 | 89 | 1009.0 |
| 20260505061505 | 12 | 65 | 0.0 | 3.2 | 0.00 | 0.10 | 0.00 | 88 | 1008.8 |
| 20260505061005 | 12 | 72 | 0.0 | 3.2 | 0.00 | 0.10 | 0.00 | 89 | 1008.9 |
| 20260505060505 | 12 | 75 | 0.0 | 3.2 | 0.00 | 0.10 | 0.00 | 89 | 1008.9 |
| 20260505060008 | 12 | 78 | 1.6 | 3.2 | 0.00 | 0.10 | 0.00 | 89 | 1009.0 |
| 20260505055505 | 12 | 84 | 1.6 | 3.2 | 0.00 | 0.10 | 0.00 | 89 | 1008.9 |
| 20260505055008 | 12 | 85 | 1.6 | 4.8 | 0.00 | 0.10 | 0.00 | 93 | 1009.1 |
| 20260505054505 | 12 | 84 | 1.6 | 4.8 | 0.00 | 0.10 | 0.00 | 93 | 1009.2 |
| 20260505054006 | 12 | 77 | 1.6 | 3.2 | 0.00 | 0.10 | 0.00 | 93 | 1009.1 |
| 20260505053505 | 12 | 75 | 1.6 | 3.2 | 0.00 | 0.10 | 0.00 | 93 | 1009.0 |
| 20260505053005 | 12 | 75 | 1.6 | 3.2 | 0.00 | 0.10 | 0.00 | 92 | 1009.1 |
| 20260505051505 | 12 | 66 | 1.6 | 4.8 | 0.00 | 0.10 | 0.00 | 92 | 1009.1 |
| 20260505051005 | 12 | 64 | 1.6 | 3.2 | 0.00 | 0.10 | 0.00 | 92 | 1008.9 |
| 20260505050505 | 12 | 61 | 1.6 | 4.8 | 0.00 | 0.10 | 0.00 | 92 | 1009.1 |
| 20260505041008 | 11 | 98 | 0.0 | 3.2 | 0.00 | 0.10 | 0.00 | 89 | 1009.0 |
| 20260505040505 | 11 | 94 | 0.0 | 3.2 | 0.00 | 0.10 | 0.00 | 89 | 1008.8 |
| 20260505040005 | 11 | 97 | 1.6 | 3.2 | 0.00 | 0.10 | 0.00 | 88 | 1009.0 |
| 20260505035504 | 11 | 111 | 1.6 | 3.2 | 0.00 | 0.10 | 0.00 | 88 | 1009.0 |
| 20260505035004 | 12 | 230 | 1.6 | 3.2 | 0.00 | 0.10 | 0.00 | 87 | 1009.1 |
| 20260505034005 | 12 | 353 | 0.0 | 3.2 | 0.00 | 0.10 | 0.00 | 87 | 1009.1 |
| 20260505033505 | 12 | 10 | 1.6 | 3.2 | 0.00 | 0.10 | 0.00 | 86 | 1009.0 |
| 20260505033005 | 12 | 9 | 1.6 | 3.2 | 0.00 | 0.10 | 0.00 | 86 | 1009.0 |
| 20260505032505 | 12 | 25 | 1.6 | 6.4 | 0.00 | 0.10 | 0.00 | 87 | 1009.0 |
| 20260505031504 | 11 | 40 | 4.8 | 8.0 | 0.00 | 0.10 | 0.00 | 88 | 1008.8 |
| 20260505030505 | 11 | 47 | 4.8 | 8.0 | 0.00 | 0.10 | 0.00 | 90 | 1009.0 |
| 20260505030005 | 11 | 58 | 6.4 | 8.0 | 0.00 | 0.10 | 0.00 | 90 | 1008.9 |
| 20260505025505 | 11 | 58 | 4.8 | 8.0 | 0.00 | 0.10 | 0.00 | 91 | 1009.1 |
| 20260505025005 | 11 | 57 | 4.8 | 8.0 | 0.00 | 0.10 | 0.00 | 91 | 1009.2 |
| 20260505024504 | 11 | 57 | 3.2 | 8.0 | 0.00 | 0.10 | 0.00 | 91 | 1009.3 |
| 20260505024005 | 11 | 59 | 3.2 | 8.0 | 0.00 | 0.10 | 0.00 | 91 | 1009.4 |
| 20260505023505 | 11 | 56 | 3.2 | 4.8 | 0.00 | 0.10 | 0.00 | 91 | 1009.3 |
| 20260505023005 | 11 | 53 | 3.2 | 4.8 | 0.00 | 0.10 | 0.00 | 91 | 1009.6 |
| 20260505022005 | 11 | 63 | 1.6 | 4.8 | 0.00 | 0.10 | 0.00 | 90 | 1009.4 |
| 20260505021504 | 11 | 76 | 1.6 | 4.8 | 0.00 | 0.10 | 0.00 | 90 | 1009.7 |
| 20260505021004 | 11 | 73 | 1.6 | 4.8 | 0.00 | 0.10 | 0.00 | 90 | 1009.8 |
| 20260505020505 | 11 | 80 | 1.6 | 4.8 | 0.00 | 0.10 | 0.00 | 89 | 1009.7 |
| 20260505015505 | 11 | 60 | 1.6 | 3.2 | 0.00 | 0.10 | 0.00 | 90 | 1009.9 |
| 20260505015005 | 11 | 61 | 1.6 | 4.8 | 0.00 | 0.10 | 0.00 | 90 | 1009.9 |
| 20260505014506 | 11 | 57 | 3.2 | 6.4 | 0.00 | 0.10 | 0.00 | 90 | 1009.8 |
| 20260505014004 | 11 | 62 | 3.2 | 6.4 | 0.00 | 0.10 | 0.00 | 90 | 1009.8 |
| 20260505013505 | 11 | 63 | 3.2 | 4.8 | 0.00 | 0.10 | 0.00 | 90 | 1009.8 |
| 20260505013005 | 11 | 72 | 4.8 | 6.4 | 0.00 | 0.10 | 0.00 | 90 | 1010.0 |
| 20260505012505 | 11 | 78 | 3.2 | 6.4 | 0.00 | 0.10 | 0.00 | 90 | 1010.0 |
| 20260505012005 | 11 | 89 | 1.6 | 4.8 | 0.00 | 0.10 | 0.00 | 90 | 1010.0 |
| 20260505011505 | 11 | 79 | 1.6 | 4.8 | 0.00 | 0.10 | 0.00 | 90 | 1010.1 |
| 20260505005504 | 11 | 18 | 0.0 | 3.2 | 0.00 | 0.10 | 0.00 | 89 | 1010.3 |
| 20260505005005 | 11 | 11 | 1.6 | 3.2 | 0.00 | 0.10 | 0.00 | 88 | 1010.5 |
| 20260505004505 | 11 | 19 | 1.6 | 3.2 | 0.00 | 0.10 | 0.00 | 88 | 1010.7 |
| 20260505004005 | 11 | 23 | 3.2 | 6.4 | 0.00 | 0.10 | 0.00 | 87 | 1010.7 |
| 20260505003505 | 11 | 25 | 4.8 | 8.0 | 0.00 | 0.10 | 0.00 | 88 | 1010.6 |
| 20260505003005 | 11 | 34 | 4.8 | 9.7 | 0.00 | 0.10 | 0.00 | 88 | 1010.7 |
| 20260505002505 | 11 | 44 | 6.4 | 11.3 | 0.00 | 0.10 | 0.00 | 88 | 1010.7 |
| 20260505002004 | 12 | 55 | 6.4 | 11.3 | 0.00 | 0.10 | 0.00 | 88 | 1010.7 |
| 20260505001505 | 12 | 62 | 4.8 | 9.7 | 0.00 | 0.10 | 0.00 | 88 | 1010.6 |
| 20260505001005 | 12 | 64 | 3.2 | 8.0 | 0.00 | 0.10 | 0.00 | 88 | 1010.8 |
| 20260505000005 | 12 | 63 | 3.2 | 4.8 | 0.00 | 0.10 | 0.00 | 89 | 1011.0 |